カタログに戻る

FREGAT DEB

運用中UNKNOWN
NORAD 45835·DEBRIS·🇷🇺 Russia

打ち上げ Jul 18, 2011 から Baikonur Cosmodrome

Loading…

次のパス (今後24時間)

TLE

最新Source: Space-Track

元期: Sep 14, 2026, 11:46 UTC

1 45835U 11037BV  26257.49077795  .00004184  00000-0  76734-3 0  9994
2 45835  51.4358  74.9651 1614854 309.4447  37.3990 11.88739990263912

AllMySatでFREGAT DEBをリアルタイム追跡

Download on the App Store